Flag for Germany Weather past 2 weeks in Achim, Lower Saxony, Germany

Now
73 °F

Sunny.


Feels Like: 77 °F
Forecast: 56 / 85 °F
Wind: 6 mph from North

Location: Bremen Airport

Current Time: Aug 2, 2015 at 6:40:00 PM

Latest Report: Aug 2, 2015 at 6:20 PM


Visibility: 10 mi

Pressure: 30.12 "Hg

Humidity: 41%

Dew point: 48 °F

Location of AchimLocation

Historic Weather in Achim — Graph

°F

Achim temperature yesterday

Maximum temperature yesterday: 73 °F (at 4:20 PM)
Minimum temperature yesterday: 48 °F (at 2:50 AM)
Average temperature yesterday: 61 °F

Past Weeks' High & Low Weather Summary

 TemperatureHumidityPressure
High79 °F (Jul 22, 2:20 PM)100% (Jul 21, 2:50 AM)30.15 "Hg (Jul 21, 2:50 AM)
Low46 °F (Aug 2, 5:50 AM)36% (Aug 1, 5:50 PM)29.42 "Hg (Jul 25, 12:20 PM)
Average62 °F75%29.84 "Hg
* Reported Jul 18 5:20 PM — Aug 2 5:20 PM, Achim, Weather by CustomWeather, © 2015

Note: Actual official high and low records may vary slightly from our data, if they occured in-between our weather recording intervals... More about our weather records

Advertising

Achim weather history for previous 24 hours

 ConditionsComfort  
Time TempWeatherWind HumidityBarometerVisibility
5:20 PM
Sun, Aug 2
73 °FPassing clouds.6 mph41%30.12 "HgN/A
4:50 PM73 °FSunny.2 mph41%30.12 "Hg10 mi
4:20 PM73 °FSunny.2 mph41%30.12 "Hg10 mi
3:50 PM73 °FPassing clouds.6 mph38%30.12 "HgN/A
3:20 PM73 °FPassing clouds.6 mph41%30.12 "HgN/A
2:50 PM73 °FSunny.6 mph38%30.12 "Hg10 mi
2:20 PM73 °FSunny.5 mph38%30.15 "Hg10 mi
1:50 PM72 °FSunny.5 mph44%30.15 "Hg10 mi
1:20 PM72 °FSunny.6 mph41%30.15 "Hg10 mi
12:50 PM70 °FPassing clouds.6 mph43%30.15 "HgN/A
12:20 PM70 °FSunny.5 mph46%30.15 "Hg10 mi
11:50 AM70 °FPassing clouds.6 mph46%30.15 "HgN/A
11:20 AM68 °FSunny.3 mph49%30.15 "Hg10 mi
10:50 AM68 °FSunny.5 mph53%30.15 "Hg10 mi
10:20 AM66 °FPassing clouds.6 mph56%30.12 "HgN/A
9:50 AM66 °FPassing clouds.5 mph56%30.12 "HgN/A
9:20 AM64 °FPassing clouds.6 mph64%30.12 "HgN/A
8:50 AM63 °FPassing clouds.3 mph77%30.12 "HgN/A
8:20 AM57 °FSunny.2 mph100%30.12 "Hg10 mi
7:50 AM54 °FSunny.2 mph100%30.12 "Hg10 mi
7:20 AM52 °FSunny.2 mph100%30.09 "Hg10 mi
6:50 AM50 °FCool.3 mph100%30.09 "Hg4 mi
6:20 AM48 °FFog.2 mph100%30.09 "Hg1 mi
5:50 AM46 °FFog.3 mph93%30.09 "Hg0 mi
5:20 AM48 °FFog.3 mph100%30.07 "Hg0 mi
4:50 AM48 °FCool.2 mph100%30.07 "Hg1 mi
4:20 AM52 °FFog.5 mph100%30.07 "HgN/A
3:50 AM50 °FPassing clouds.5 mph94%30.07 "Hg4 mi
3:20 AM50 °FCool.3 mph94%30.07 "Hg0 mi
2:20 AM54 °FClear.5 mph94%30.07 "Hg10 mi
1:50 AM52 °FClear.5 mph94%30.07 "Hg10 mi
1:20 AM54 °FClear.5 mph94%30.04 "Hg10 mi
12:50 AM55 °FClear.6 mph94%30.07 "Hg10 mi
12:20 AM57 °FClear.7 mph88%30.04 "Hg10 mi
11:20 PM
Sat, Aug 1
57 °FClear.6 mph88%30.04 "Hg10 mi
10:50 PM59 °FClear.6 mph77%30.04 "Hg10 mi
10:20 PM61 °FPassing clouds.5 mph72%30.04 "HgN/A
9:50 PM66 °FSunny.5 mph56%30.01 "Hg10 mi
9:20 PM66 °FSunny.5 mph56%30.01 "Hg10 mi
8:50 PM70 °FSunny.5 mph50%30.01 "Hg10 mi
8:20 PM70 °FSunny.6 mph46%29.98 "Hg10 mi
7:50 PM72 °FPassing clouds.5 mph44%29.98 "HgN/A
7:20 PM72 °FSunny.5 mph47%29.98 "Hg10 mi
6:50 PM72 °FSunny.6 mph47%29.98 "Hg10 mi
6:20 PM73 °FSunny.6 mph41%29.98 "Hg10 mi
Weather by CustomWeather, © 2015

See weather overviewHow to use our weather pages